QPF
0.00 0.00 0.00 0.00 0.00 0.00 0.00 0.00 0.00 0.00 0.00 0.00 0.00 0.00 0.00 0.00 0.00 0.00 0.00 0.00 0.00 0.00 0.00 0.00 0.00 0.00 0.00 0.00 0.00 0.00 0.00 0.00 0.00 0.00 0.00 0.00 0.00 0.00 0.00 0.00 0.01 0.00 0.00 0.00
0.00 0.00 0.00 0.00 0.00 0.00 0.00 0.00 0.00 0.00 0.00 0.00 0.00 0.00 0.00 0.00 0.00 0.00 0.00 0.00 0.00 0.00 0.00 0.00 0.00 0.00 0.00 0.00 0.00 0.00 0.00 0.00 0.00 0.00 0.00 0.00 0.00 0.00 0.02 0.02 0.00 0.00 0.00 0.00
0.00 0.00 0.00 0.00 0.00 0.00 0.00 0.00 0.00 0.00 0.00 0.00 0.00 0.00 0.00 0.00 0.00 0.00 0.00 0.00 0.00 0.00 0.00 0.00 0.00 0.00 0.00 0.00 0.00 0.00 0.00 0.00 0.00 0.00 0.00 0.00 0.00 0.01 0.01 0.00 0.00 0.00 0.00 0.00
0.00 0.00 0.00 0.00 0.00 0.00 0.00 0.00 0.00 0.00 0.00 0.00 0.00 0.00 0.00 0.00 0.00 0.00 0.00 0.00 0.00 0.00 0.00 0.00 0.00 0.00 0.00 0.00 0.00 0.00 0.00 0.00 0.00 0.00 0.00 0.00 0.00 0.00 0.00 0.00 0.00 0.00 0.00 0.00
0.00 0.00 0.00 0.00 0.00 0.00 0.00 0.00 0.00 0.00 0.00 0.00 0.00 0.00 0.00 0.00 0.00 0.00 0.00 0.00 0.00 0.00 0.00 0.00 0.00 0.00 0.00 0.00 0.00 0.00 0.00 0.00 0.00 0.00 0.00 0.00 0.00 0.00 0.00 0.00 0.00 0.00 0.00 0.00
0.00 0.00 0.00 0.00 0.00 0.00 0.00 0.00 0.00 0.00 0.00 0.00 0.00 0.00 0.00 0.00 0.00 0.00 0.00 0.00 0.00 0.00 0.00 0.00 0.00 0.00 0.00 0.00 0.00 0.00 0.00 0.00 0.00 0.00 0.00 0.00 0.00 0.00 0.00 0.00 0.00 0.00 0.00 0.00
0.00 0.00 0.00 0.00 0.00 0.00 0.00 0.00 0.00 0.00 0.00 0.00 0.00 0.00 0.00 0.00 0.00 0.00 0.00 0.00 0.00 0.00 0.00 0.00 0.00 0.00 0.00 0.00 0.00 0.00 0.00 0.00 0.00 0.00 0.00 0.00 0.00 0.00 0.00 0.00 0.00 0.00 0.00 0.00
0.00 0.00 0.00 0.00 0.00 0.00 0.00 0.00 0.00 0.00 0.00 0.00 0.00 0.00 0.00 0.00 0.00 0.00 0.00 0.00 0.00 0.00 0.00 0.00 0.00 0.00 0.00 0.00 0.00 0.00 0.00 0.00 0.00 0.00 0.00 0.00 0.00 0.00 0.00 0.00 0.00 0.00 0.00 0.00
0.00 0.00 0.00 0.00 0.00 0.00 0.00 0.00 0.00 0.00 0.00 0.00 0.00 0.00 0.00 0.00 0.00 0.00 0.00 0.00 0.00 0.00 0.00 0.00 0.00 0.00 0.00 0.00 0.00 0.00 0.00 0.00 0.00 0.00 0.00 0.00 0.00 0.00 0.00 0.00 0.00 0.00 0.00 0.00
0.00 0.00 0.00 0.00 0.00 0.00 0.00 0.00 0.00 0.00 0.00 0.00 0.00 0.00 0.00 0.00 0.00 0.00 0.00 0.00 0.00 0.00 0.00 0.00 0.00 0.00 0.00 0.00 0.00 0.00 0.00 0.00 0.00 0.00 0.00 0.00 0.00 0.00 0.00 0.00 0.00 0.00 0.00 0.00
0.00 0.00 0.00 0.00 0.00 0.00 0.00 0.00 0.00 0.00 0.00 0.00 0.00 0.00 0.00 0.00 0.00 0.00 0.00 0.01 0.00 0.00 0.00 0.00 0.00 0.00 0.00 0.00 0.00 0.00 0.00 0.00 0.00 0.00 0.00 0.00 0.00 0.00 0.00 0.00 0.00 0.00 0.00 0.00
0.00 0.00 0.00 0.00 0.00 0.00 0.00 0.00 0.00 0.01 0.00 0.00 0.00 0.00 0.00 0.00 0.00 0.00 0.00 0.00 0.00 0.00 0.00 0.00 0.00 0.00 0.00 0.00 0.00 0.00 0.00 0.00 0.00 0.00 0.00 0.00 0.00 0.00 0.00 0.00 0.00 0.00 0.00 0.00
0.00 0.00 0.00 0.00 0.00 0.00 0.00 0.00 0.00 0.01 0.01 0.00 0.01 0.00 0.00 0.01 0.01 0.00 0.00 0.01 0.00 0.00 0.00 0.00 0.00 0.00 0.00 0.00 0.00 0.00 0.00 0.00 0.00 0.00 0.00 0.00 0.00 0.00 0.00 0.00 0.00 0.00 0.00 0.00
0.00 0.00 0.00 0.00 0.00 0.00 0.00 0.00 0.00 0.00 0.01 0.01 0.00 0.00 0.03 0.02 0.02 0.00 0.00 0.01 0.00 0.00 0.00 0.00 0.00 0.00 0.00 0.00 0.00 0.00 0.00 0.00 0.00 0.00 0.00 0.00 0.00 0.00 0.00 0.00 0.00 0.00 0.00 0.00
0.00 0.00 0.00 0.00 0.00 0.00 0.00 0.00 0.01 0.01 0.03 0.01 0.02 0.02 0.01 0.00 0.02 0.03 0.01 0.00 0.00 0.00 0.00 0.00 0.00 0.00 0.00 0.00 0.00 0.00 0.00 0.00 0.00 0.00 0.00 0.00 0.00 0.00 0.00 0.00 0.00 0.00 0.00 0.00
0.00 0.00 0.00 0.00 0.00 0.00 0.00 0.00 0.01 0.03 0.04 0.02 0.05 0.05 0.03 0.01 0.00 0.00 0.00 0.00 0.00 0.00 0.00 0.00 0.00 0.00 0.00 0.00 0.00 0.00 0.00 0.00 0.00 0.00 0.00 0.00 0.00 0.00 0.00 0.00 0.00 0.00 0.00 0.00
0.00 0.00 0.00 0.00 0.00 0.00 0.00 0.03 0.07 0.03 0.00 0.00 0.02 0.01 0.01 0.00 0.00 0.00 0.00 0.00 0.00 0.00 0.00 0.00 0.00 0.00 0.00 0.00 0.00 0.00 0.00 0.00 0.00 0.00 0.00 0.00 0.00 0.00 0.00 0.00 0.00 0.00 0.00 0.00
0.00 0.00 0.00 0.00 0.00 0.00 0.00 0.05 0.10 0.03 0.00 0.00 0.00 0.00 0.00 0.00 0.00 0.00 0.00 0.00 0.00 0.00 0.00 0.00 0.00 0.00 0.00 0.00 0.00 0.00 0.00 0.00 0.00 0.00 0.00 0.00 0.00 0.00 0.00 0.00 0.00 0.00 0.00 0.00
0.00 0.00 0.00 0.00 0.00 0.00 0.00 0.01 0.04 0.02 0.00 0.01 0.00 0.00 0.00 0.00 0.00 0.00 0.00 0.00 0.00 0.00 0.00 0.00 0.00 0.00 0.00 0.00 0.00 0.00 0.00 0.00 0.00 0.00 0.00 0.00 0.00 0.00 0.00 0.00 0.00 0.00 0.00 0.00
0.00 0.00 0.00 0.00 0.00 0.00 0.00 0.01 0.01 0.01 0.00 0.00 0.00 0.00 0.00 0.00 0.00 0.00 0.00 0.00 0.00 0.00 0.00 0.00 0.00 0.00 0.00 0.00 0.00 0.00 0.00 0.00 0.00 0.00 0.00 0.00 0.00 0.00 0.00 0.00 0.00 0.00 0.00 0.00
0.00 0.00 0.00 0.00 0.00 0.00 0.00 0.00 0.00 0.00 0.00 0.00 0.00 0.00 0.00 0.00 0.00 0.00 0.00 0.00 0.00 0.00 0.00 0.00 0.00 0.00 0.00 0.00 0.00 0.00 0.00 0.00 0.00 0.00 0.00 0.00 0.00 0.00 0.00 0.00 0.00 0.00 0.00 0.00
0.00 0.00 0.00 0.00 0.00 0.00 0.00 0.00 0.00 0.00 0.00 0.00 0.00 0.00 0.00 0.00 0.00 0.00 0.00 0.00 0.00 0.00 0.00 0.00 0.00 0.00 0.00 0.00 0.00 0.00 0.00 0.00 0.00 0.00 0.00 0.00 0.00 0.00 0.00 0.00 0.00 0.00 0.00 0.00
0.00 0.00 0.00 0.00 0.00 0.00 0.00 0.00 0.00 0.00 0.00 0.00 0.00 0.00 0.00 0.00 0.00 0.00 0.00 0.00 0.00 0.00 0.00 0.00 0.00 0.00 0.00 0.00 0.00 0.00 0.00 0.00 0.00 0.00 0.00 0.00 0.00 0.00 0.00 0.00 0.00 0.00 0.00 0.00
0.00 0.00 0.00 0.00 0.00 0.00 0.00 0.00 0.00 0.00 0.00 0.00 0.00 0.00 0.00 0.00 0.00 0.00 0.00 0.00 0.00 0.00 0.00 0.00 0.00 0.00 0.00 0.00 0.00 0.00 0.00 0.00 0.00 0.00 0.00 0.00 0.00 0.00 0.00 0.00 0.00 0.00 0.00 0.00
0.00 0.00 0.00 0.00 0.00 0.00 0.00 0.00 0.00 0.00 0.00 0.00 0.00 0.00 0.00 0.00 0.00 0.00 0.00 0.00 0.00 0.00 0.00 0.00 0.00 0.00 0.00 0.00 0.00 0.00 0.00 0.00 0.00 0.00 0.00 0.00 0.00 0.00 0.00 0.00 0.00 0.00 0.00 0.00
0.00 0.00 0.00 0.00 0.00 0.00 0.00 0.00 0.00 0.00 0.00 0.00 0.00 0.00 0.00 0.00 0.00 0.00 0.00 0.00 0.00 0.00 0.00 0.00 0.00 0.00 0.00 0.00 0.00 0.00 0.00 0.00 0.00 0.00 0.00 0.00 0.00 0.00 0.00 0.00 0.00 0.00 0.00 0.00
MSLP
1010.51 1009.96 1009.65 1009.42 1009.74 1009.92 1009.88 1009.74 1009.47 1009.19 1009.33 1009.48 1009.55 1010.06 1010.78 1011.52 1011.79 1011.93 1012.16 1012.47 1012.84 1013.11 1013.70 1014.11 1014.56 1014.74 1014.92 1015.16 1015.51 1015.88 1016.17 1016.69 1016.99 1017.06 1017.02 1017.24 1017.79 1018.37 1018.88 1018.83 1018.71 1018.89 1018.84 1018.60
1010.22 1009.70 1009.39 1009.72 1009.72 1009.96 1009.81 1009.61 1009.09 1009.08 1009.37 1009.55 1009.39 1009.63 1010.45 1011.06 1011.20 1011.67 1011.97 1012.43 1012.71 1013.16 1013.76 1014.30 1014.64 1014.91 1015.22 1015.38 1015.68 1016.05 1016.47 1016.89 1016.96 1016.96 1017.15 1017.33 1017.96 1018.60 1018.75 1018.77 1018.65 1018.77 1018.81 1018.77
1009.80 1009.36 1009.73 1009.71 1009.47 1009.42 1009.13 1009.24 1008.95 1009.03 1009.58 1009.85 1009.79 1009.58 1010.01 1010.60 1010.95 1011.49 1011.88 1012.34 1012.61 1013.10 1013.75 1014.44 1014.89 1014.94 1015.31 1015.65 1015.95 1016.26 1016.67 1016.90 1017.09 1017.23 1017.47 1017.73 1017.98 1018.30 1018.24 1018.38 1018.55 1018.90 1019.02 1018.84
1009.60 1009.41 1009.42 1009.46 1009.24 1009.18 1008.87 1008.32 1008.96 1009.10 1009.51 1009.39 1010.17 1009.27 1009.72 1010.06 1010.38 1011.04 1011.55 1012.03 1012.49 1013.26 1014.01 1014.67 1015.19 1015.51 1015.53 1016.02 1016.17 1016.42 1016.79 1017.07 1017.27 1017.38 1017.58 1017.59 1017.67 1017.87 1018.34 1018.58 1018.86 1018.93 1019.06 1018.90
1008.67 1009.02 1009.25 1009.13 1008.47 1008.70 1008.39 1008.59 1008.94 1009.20 1009.47 1009.97 1010.00 1010.28 1009.52 1010.22 1010.12 1010.32 1011.08 1011.85 1012.50 1013.15 1013.92 1014.81 1015.37 1015.90 1016.14 1016.21 1016.30 1016.54 1016.95 1017.25 1017.46 1017.57 1017.69 1017.51 1017.79 1018.17 1018.40 1018.62 1018.86 1018.93 1018.88 1018.77
1008.67 1008.98 1009.01 1008.17 1008.04 1008.50 1008.53 1008.83 1009.19 1009.80 1009.98 1009.82 1009.81 1010.29 1008.99 1009.42 1009.21 1009.69 1010.85 1011.67 1012.45 1013.24 1014.21 1015.07 1015.58 1016.14 1016.37 1016.53 1016.62 1016.81 1017.03 1017.32 1017.48 1017.60 1017.79 1017.76 1017.81 1018.11 1018.21 1018.48 1018.42 1018.52 1018.64 1018.69
1008.80 1008.48 1008.29 1008.36 1008.23 1008.51 1008.82 1009.12 1008.92 1009.29 1009.57 1009.57 1010.57 1010.50 1009.11 1009.35 1009.68 1009.78 1010.57 1011.62 1012.63 1013.36 1014.15 1014.96 1015.70 1016.07 1016.23 1016.38 1016.67 1016.85 1016.92 1017.13 1017.40 1017.63 1017.88 1017.86 1017.95 1018.19 1018.44 1018.63 1018.67 1018.62 1018.59 1018.67
1008.97 1008.47 1008.36 1008.39 1008.28 1008.37 1008.98 1009.36 1009.54 1009.52 1010.14 1010.07 1010.84 1010.02 1009.23 1010.01 1010.34 1010.55 1010.98 1011.98 1012.85 1013.45 1014.13 1014.60 1015.37 1015.90 1015.96 1016.21 1016.48 1016.62 1016.80 1016.98 1017.36 1017.73 1017.85 1017.92 1018.06 1018.18 1018.56 1018.84 1018.78 1018.74 1018.83 1018.71
1009.58 1009.10 1008.66 1008.73 1008.69 1009.08 1009.40 1009.85 1010.65 1010.61 1011.44 1010.99 1010.29 1010.03 1009.60 1010.09 1010.48 1011.07 1011.56 1012.37 1013.00 1013.58 1014.19 1014.60 1015.26 1015.66 1015.71 1015.90 1016.25 1016.58 1016.73 1017.00 1017.34 1017.51 1017.78 1018.10 1018.27 1018.33 1018.52 1018.83 1018.88 1018.78 1018.89 1018.64
1010.34 1009.86 1009.28 1009.22 1009.38 1009.69 1009.56 1010.51 1010.90 1010.95 1010.77 1010.28 1010.20 1010.13 1009.48 1009.72 1010.07 1010.90 1011.71 1012.36 1012.96 1013.49 1014.12 1014.57 1015.07 1015.43 1015.69 1015.98 1016.33 1016.72 1016.95 1017.11 1017.30 1017.49 1017.62 1017.91 1018.21 1018.36 1018.38 1018.58 1018.67 1018.69 1018.65 1018.60
1010.99 1010.86 1009.82 1009.79 1009.34 1009.31 1010.24 1010.50 1011.27 1011.69 1011.48 1010.69 1010.14 1009.66 1009.65 1009.65 1009.90 1010.46 1011.34 1012.11 1012.73 1013.14 1013.73 1014.33 1014.87 1015.37 1015.66 1016.09 1016.41 1016.73 1016.98 1017.07 1017.22 1017.44 1017.62 1017.87 1018.04 1018.19 1018.29 1018.35 1018.43 1018.45 1018.46 1018.33
1011.73 1011.32 1010.40 1009.81 1010.29 1010.39 1010.32 1010.42 1010.88 1010.99 1011.34 1011.35 1010.78 1009.76 1009.53 1009.87 1009.98 1010.48 1011.17 1011.97 1012.67 1013.20 1013.72 1014.09 1014.73 1015.27 1015.62 1015.85 1016.15 1016.48 1016.68 1016.77 1016.93 1017.32 1017.67 1017.82 1017.97 1018.15 1018.12 1018.12 1018.15 1018.13 1018.18 1018.01
1012.39 1012.10 1011.25 1010.33 1010.75 1011.05 1010.97 1011.26 1011.55 1011.75 1011.54 1010.91 1010.48 1009.58 1009.96 1010.31 1010.45 1010.88 1011.18 1011.95 1012.59 1013.25 1013.75 1014.12 1014.56 1014.94 1015.36 1015.71 1016.09 1016.38 1016.51 1016.59 1016.87 1017.23 1017.48 1017.74 1017.84 1017.90 1017.90 1017.84 1017.74 1017.75 1017.78 1017.62
1013.01 1012.73 1012.13 1011.59 1011.27 1011.64 1011.38 1011.45 1011.70 1011.82 1011.36 1010.56 1010.24 1009.61 1009.95 1010.33 1010.72 1011.02 1011.51 1011.99 1012.29 1012.91 1013.51 1013.93 1014.19 1014.56 1015.10 1015.55 1015.89 1016.18 1016.47 1016.67 1016.86 1017.13 1017.27 1017.42 1017.61 1017.72 1017.61 1017.51 1017.38 1017.34 1017.31 1017.20
1013.43 1013.06 1012.77 1012.09 1011.96 1012.00 1011.73 1011.54 1011.51 1011.67 1011.35 1011.26 1010.33 1010.38 1010.45 1010.54 1010.82 1010.95 1011.30 1012.03 1012.36 1012.80 1013.23 1013.49 1013.88 1014.47 1015.04 1015.42 1015.70 1015.94 1016.09 1016.34 1016.64 1016.88 1017.01 1017.12 1017.29 1017.33 1017.28 1017.12 1017.01 1016.91 1016.93 1016.81
1014.06 1013.57 1013.28 1012.41 1012.27 1012.15 1011.85 1011.77 1011.65 1011.72 1011.72 1011.56 1011.53 1011.41 1011.80 1011.56 1011.10 1011.00 1011.26 1011.79 1012.52 1012.62 1012.99 1013.52 1013.98 1014.46 1014.74 1015.02 1015.27 1015.61 1015.89 1016.07 1016.43 1016.59 1016.58 1016.65 1016.80 1016.73 1016.67 1016.61 1016.56 1016.47 1016.39 1016.34
1014.26 1014.13 1013.78 1012.81 1012.62 1012.17 1012.04 1012.37 1012.45 1012.86 1013.00 1012.81 1012.44 1013.16 1012.82 1012.13 1012.31 1011.85 1012.26 1012.55 1012.67 1012.87 1013.10 1013.49 1013.95 1014.09 1014.37 1014.65 1015.30 1015.52 1015.59 1015.89 1016.14 1016.25 1016.16 1016.10 1016.18 1016.08 1015.98 1015.96 1016.03 1015.90 1015.76 1015.77
1014.45 1014.47 1014.37 1013.53 1012.91 1012.44 1012.81 1012.89 1013.02 1013.73 1013.93 1013.91 1013.99 1013.98 1013.82 1013.46 1013.06 1012.26 1011.95 1012.14 1012.29 1012.68 1012.94 1013.15 1013.42 1013.95 1014.40 1014.77 1015.03 1015.18 1015.37 1015.53 1015.68 1015.70 1015.66 1015.59 1015.51 1015.40 1015.31 1015.36 1015.25 1015.24 1015.19 1015.05
1014.63 1014.65 1014.36 1014.15 1013.43 1013.19 1012.84 1013.06 1013.31 1013.41 1014.17 1014.06 1014.47 1014.58 1014.45 1014.22 1013.90 1012.97 1012.61 1012.66 1012.52 1012.72 1012.96 1013.18 1013.61 1014.05 1014.31 1014.61 1014.72 1014.92 1014.92 1015.14 1015.27 1015.09 1015.54 1015.60 1015.52 1015.27 1015.00 1014.74 1014.46 1014.38 1014.48 1014.32
1014.71 1014.76 1014.44 1014.24 1013.63 1013.07 1013.17 1013.23 1013.37 1013.48 1013.89 1013.71 1013.64 1013.55 1013.67 1013.70 1013.11 1013.04 1012.84 1012.75 1012.87 1013.09 1013.39 1013.69 1013.86 1014.06 1014.29 1015.06 1015.42 1015.49 1015.44 1015.45 1015.64 1015.23 1014.85 1014.67 1014.26 1014.17 1014.21 1014.12 1013.91 1013.81 1013.80 1013.62
1014.37 1014.53 1014.33 1014.19 1013.74 1013.38 1013.28 1013.22 1013.14 1013.09 1014.03 1013.35 1013.12 1013.11 1013.05 1012.99 1013.29 1013.23 1013.09 1013.06 1013.43 1013.93 1014.37 1014.61 1014.80 1015.24 1015.80 1015.83 1015.61 1015.38 1015.37 1015.31 1015.11 1014.74 1014.57 1014.32 1013.93 1013.66 1013.27 1013.51 1013.27 1012.97 1012.88 1012.85
1014.05 1014.21 1014.20 1014.29 1013.94 1013.43 1013.40 1013.16 1013.03 1013.49 1013.30 1013.20 1013.05 1013.08 1013.18 1013.52 1013.67 1013.93 1014.16 1014.34 1014.57 1014.79 1014.92 1015.00 1015.26 1016.05 1016.76 1016.83 1016.36 1016.28 1016.60 1016.67 1015.83 1015.07 1014.45 1014.11 1013.85 1013.58 1012.67 1012.83 1012.64 1012.49 1012.35 1012.21
1014.07 1014.09 1014.03 1014.22 1013.55 1013.64 1013.66 1013.59 1013.39 1013.55 1013.56 1013.55 1013.52 1013.66 1013.76 1014.21 1014.68 1015.18 1015.49 1015.74 1016.21 1016.43 1016.48 1016.50 1016.87 1017.86 1018.49 1018.69 1018.51 1018.18 1018.19 1017.61 1016.68 1015.65 1015.17 1014.48 1013.97 1013.26 1012.76 1012.51 1012.45 1012.06 1011.85 1011.71
1013.87 1014.22 1013.94 1014.13 1013.86 1013.62 1013.63 1013.79 1013.74 1013.73 1013.97 1014.34 1014.47 1014.60 1014.83 1015.59 1016.12 1016.69 1017.27 1017.76 1018.14 1018.40 1018.56 1018.91 1019.09 1019.35 1019.77 1019.89 1019.61 1019.48 1019.19 1018.49 1017.45 1016.62 1016.08 1015.40 1014.63 1014.13 1013.39 1012.75 1012.34 1012.15 1011.70 1011.44
1013.42 1013.90 1013.66 1013.67 1013.78 1013.93 1014.09 1014.25 1014.36 1014.61 1014.79 1015.23 1015.71 1015.94 1016.27 1016.88 1017.61 1018.22 1018.78 1019.22 1019.41 1019.59 1019.86 1020.03 1020.14 1020.30 1020.44 1020.41 1020.23 1020.17 1019.67 1019.05 1018.27 1017.68 1016.96 1016.18 1015.53 1014.95 1014.22 1013.81 1013.19 1012.67 1012.10 1012.21
1012.93 1012.80 1013.01 1012.64 1013.16 1013.56 1014.52 1015.02 1015.10 1015.43 1015.67 1016.08 1016.63 1017.29 1017.76 1018.16 1018.75 1019.29 1019.84 1020.24 1020.33 1020.48 1020.65 1020.68 1020.82 1020.85 1020.95 1020.86 1020.70 1020.45 1020.04 1019.54 1018.92 1018.18 1017.53 1017.08 1016.37 1015.78 1015.04 1014.43 1013.74 1013.11 1012.85 1012.38
Thickness
5761 5757 5749 5763 5761 5759 5753 5748 5747 5760 5767 5761 5760 5755 5755 5755 5757 5757 5755 5752 5748 5744 5740 5736 5731 5729 5725 5722 5717 5712 5708 5702 5696 5691 5687 5682 5674 5667 5660 5658 5653 5648 5643 5639
5754 5745 5766 5762 5761 5751 5749 5744 5749 5759 5760 5755 5756 5755 5752 5751 5756 5755 5751 5744 5743 5739 5733 5729 5725 5722 5718 5716 5712 5708 5703 5696 5692 5689 5684 5679 5670 5662 5658 5653 5649 5642 5637 5631
5744 5759 5760 5757 5757 5750 5753 5742 5747 5747 5749 5748 5744 5744 5745 5749 5754 5751 5748 5743 5740 5736 5728 5721 5719 5717 5715 5711 5707 5702 5697 5693 5688 5683 5677 5671 5666 5660 5657 5651 5644 5634 5627 5622
5752 5763 5757 5751 5748 5753 5736 5768 5752 5747 5738 5729 5738 5726 5739 5744 5746 5743 5742 5737 5734 5727 5722 5714 5711 5707 5708 5703 5702 5698 5693 5688 5683 5678 5672 5668 5663 5657 5650 5642 5634 5628 5620 5615
5757 5756 5747 5743 5756 5761 5749 5762 5752 5745 5736 5724 5731 5715 5742 5731 5735 5741 5738 5731 5728 5725 5719 5708 5704 5701 5699 5699 5697 5693 5687 5682 5676 5672 5667 5664 5657 5649 5642 5635 5628 5622 5616 5610
5764 5768 5760 5765 5769 5760 5764 5751 5743 5729 5725 5708 5727 5712 5733 5732 5739 5742 5733 5728 5724 5719 5710 5702 5699 5695 5693 5692 5689 5685 5681 5675 5671 5666 5661 5656 5651 5644 5639 5632 5627 5620 5612 5602
5754 5758 5766 5765 5753 5756 5748 5735 5719 5710 5710 5707 5706 5701 5727 5734 5734 5737 5730 5722 5716 5713 5706 5698 5692 5689 5688 5687 5684 5680 5677 5672 5666 5660 5654 5651 5647 5640 5632 5625 5619 5611 5605 5599
5733 5731 5755 5762 5754 5746 5739 5733 5714 5684 5687 5703 5699 5699 5725 5722 5723 5725 5725 5717 5711 5705 5701 5698 5691 5686 5686 5684 5681 5678 5673 5668 5662 5656 5651 5647 5642 5635 5627 5618 5612 5608 5600 5594
5727 5728 5756 5752 5753 5746 5730 5720 5716 5698 5682 5681 5702 5707 5722 5713 5713 5710 5710 5704 5701 5697 5692 5689 5686 5684 5684 5682 5679 5674 5670 5664 5658 5653 5647 5641 5635 5629 5623 5615 5609 5604 5595 5589
5735 5717 5742 5743 5742 5735 5732 5722 5702 5701 5674 5675 5688 5685 5700 5710 5710 5706 5698 5695 5696 5694 5688 5685 5683 5680 5678 5676 5673 5667 5663 5658 5653 5647 5644 5639 5632 5626 5622 5614 5607 5600 5592 5583
5731 5719 5731 5731 5729 5727 5713 5707 5694 5688 5684 5676 5673 5687 5712 5712 5713 5707 5702 5698 5694 5692 5688 5682 5679 5674 5671 5668 5665 5660 5656 5652 5648 5644 5640 5635 5631 5625 5618 5612 5605 5598 5589 5581
5723 5715 5706 5719 5716 5716 5712 5707 5700 5685 5677 5674 5675 5685 5710 5709 5710 5707 5703 5697 5692 5689 5684 5680 5675 5668 5664 5662 5660 5656 5652 5649 5645 5640 5634 5630 5626 5620 5615 5609 5603 5596 5587 5581
5715 5704 5692 5702 5704 5699 5691 5691 5686 5676 5676 5675 5668 5686 5703 5699 5699 5699 5699 5694 5689 5683 5679 5674 5670 5666 5661 5657 5654 5650 5648 5645 5640 5634 5629 5624 5620 5616 5611 5607 5602 5595 5587 5582
5708 5698 5693 5679 5684 5683 5678 5682 5678 5672 5668 5677 5680 5690 5696 5696 5691 5692 5690 5690 5688 5680 5674 5670 5667 5664 5659 5653 5649 5645 5641 5638 5633 5628 5624 5619 5614 5609 5607 5603 5600 5595 5589 5583
5702 5690 5687 5690 5687 5677 5675 5678 5680 5667 5673 5660 5684 5680 5689 5690 5691 5690 5690 5682 5677 5673 5669 5668 5664 5658 5653 5647 5644 5641 5638 5633 5628 5622 5618 5614 5609 5606 5603 5600 5597 5594 5588 5583
5690 5686 5681 5680 5681 5675 5669 5674 5673 5671 5668 5672 5671 5668 5674 5677 5681 5684 5683 5679 5671 5668 5665 5661 5657 5651 5647 5643 5639 5635 5630 5626 5622 5617 5613 5610 5606 5603 5601 5598 5594 5591 5588 5583
5684 5677 5670 5668 5674 5671 5662 5661 5661 5657 5658 5657 5657 5655 5662 5666 5666 5670 5665 5663 5663 5661 5657 5653 5648 5647 5644 5640 5631 5626 5623 5619 5614 5610 5608 5606 5602 5599 5598 5596 5591 5588 5586 5583
5678 5669 5662 5661 5666 5648 5660 5666 5659 5645 5645 5646 5646 5649 5649 5651 5656 5665 5670 5666 5665 5658 5653 5651 5649 5642 5636 5631 5626 5623 5619 5615 5610 5606 5603 5600 5597 5595 5594 5591 5589 5586 5583 5582
5676 5666 5659 5653 5651 5658 5662 5660 5654 5650 5639 5648 5634 5636 5637 5635 5641 5651 5658 5659 5659 5656 5651 5647 5642 5635 5631 5625 5623 5618 5614 5608 5603 5601 5594 5590 5587 5587 5586 5586 5585 5584 5581 5579
5670 5665 5661 5653 5645 5641 5654 5661 5662 5657 5633 5650 5652 5650 5646 5644 5645 5649 5654 5655 5652 5649 5643 5636 5633 5628 5622 5614 5607 5601 5596 5593 5587 5587 5588 5587 5587 5586 5581 5580 5580 5579 5578 5578
5662 5657 5655 5645 5648 5653 5661 5661 5663 5643 5636 5655 5658 5655 5654 5650 5649 5651 5652 5650 5644 5637 5628 5623 5618 5610 5602 5598 5597 5594 5590 5586 5583 5582 5579 5579 5579 5578 5579 5574 5573 5574 5575 5575
5662 5655 5651 5644 5637 5643 5661 5660 5651 5653 5657 5658 5658 5656 5653 5648 5646 5642 5639 5634 5630 5624 5618 5614 5608 5597 5588 5584 5584 5579 5570 5565 5568 5570 5571 5570 5568 5567 5572 5568 5568 5567 5567 5568
5655 5660 5656 5650 5654 5656 5657 5653 5659 5655 5652 5651 5651 5649 5647 5640 5633 5628 5623 5617 5610 5605 5600 5596 5589 5574 5562 5557 5554 5553 5547 5548 5551 5556 5556 5558 5557 5560 5561 5560 5557 5559 5560 5561
5656 5654 5653 5647 5651 5653 5654 5652 5653 5653 5648 5644 5641 5638 5636 5624 5620 5612 5603 5595 5588 5581 5576 5569 5563 5555 5545 5539 5537 5533 5531 5532 5537 5539 5539 5541 5543 5543 5546 5547 5548 5549 5550 5552
5662 5653 5651 5648 5649 5649 5648 5646 5644 5642 5640 5634 5628 5625 5620 5613 5602 5594 5586 5579 5573 5567 5560 5553 5547 5540 5535 5530 5526 5521 5519 5519 5520 5520 5521 5524 5525 5525 5529 5529 5531 5534 5536 5533
5662 5661 5652 5654 5655 5650 5638 5634 5636 5632 5629 5626 5619 5608 5603 5597 5589 5582 5572 5564 5560 5555 5547 5541 5534 5528 5522 5516 5512 5508 5505 5504 5503 5505 5507 5506 5507 5507 5511 5512 5515 5516 5516 5517